(241736) = 2005 CL47 = 2000 VY63 = 2000 WC136

Discovered at Socorro on 2000-11-20 by LINEAR.

Orbit

Orbit type: Main Belt

Note: WebGL enabled browser required.

epoch2023-09-13.0
epoch JD2460200.5
perihelion date2024-09-03.84119
perihelion JD2460557.34119
argument of perihelion (°)46.45183
ascending node (°)338.58754
inclination (°)2.81473
eccentricity0.1728235
perihelion distance (AU)1.8802387
Tisserand w.r.t. Jupiter3.6
ΔV w.r.t. Earth (km/sec)8.5
semimajor axis (AU)2.2730805
mean anomaly (°)257.37419
mean daily motion (°/day)0.28759520
aphelion distance (AU)2.666
period (years)3.43
P-vector [x]0.90569796
P-vector [y]0.37341128
P-vector [z]0.20068689
Q-vector [x]-0.42354434
Q-vector [y]0.81708671
Q-vector [z]0.39112594
absolute magnitude17.52
phase slope0.15
uncertainty0
referenceMPEC 2023-N34
observations used423
oppositions15
arc length (days)8281
first opposition used2000
last opposition used2023
residual rms (arc-secs)0.68
perturbers coarse indicatorM-v
perturbers precise indicator003Ek
first observation date used2000-11-03.0
last observation date used2023-07-07.0
computer nameMPCLINUX
JD of orbit computation2455988.763432
perihelion JD uncertainty (days)8.5570E-05
argument of perihelion uncertainty (°)1.2617E-04
ascending node uncertainty (°)1.2321E-04
inclination uncertainty (°)8.9601E-06
eccentricity uncertainty 7.4294E-08
perihelion distance uncertainty (AU)1.7670E-07
Minimum Orbit Intersection Distances (in AU)
for orbit epoch: 2460000.5, reference: E2023-JC8
Mercury1.54414
Venus1.15993
Earth0.88398
Mars0.43991
Jupiter2.78673
Saturn6.83453
Uranus15.8433
Neptune27.9751

Observations

427 total observations over interval: 2000 11 03.27729 – 2023 07 07.348297
These data are available for download (format description).

Date (UT) J2000 RA J2000 Dec Magn Location Ref
2000 11 03.27729 03 31 36.56 +24 39 18.7 19.3   704 – Lincoln Laboratory ETS, New Mexico MPC 42233
2000 11 03.29089 03 31 35.74 +24 39 17.9 19.1   704 – Lincoln Laboratory ETS, New Mexico MPC 42233
2000 11 03.30452 03 31 34.90 +24 39 16.3 19.8   704 – Lincoln Laboratory ETS, New Mexico MPC 42233
2000 11 20.28942 03 13 48.97 +23 49 05.6 19.4   704 – Lincoln Laboratory ETS, New Mexico MPS 23006
2000 11 20.30665 03 13 47.90 +23 49 01.2 19.3   704 – Lincoln Laboratory ETS, New Mexico MPS 23006
2000 11 20.32165 03 13 46.90 +23 48 57.8 19.1   704 – Lincoln Laboratory ETS, New Mexico MPS 23006
2000 11 20.33666 03 13 45.97 +23 48 54.0 18.8   704 – Lincoln Laboratory ETS, New Mexico MPS 23006
2000 11 20.35169 03 13 44.94 +23 48 50.1 19.6   704 – Lincoln Laboratory ETS, New Mexico MPS 23006
2000 11 24.22700 03 09 56.11 +23 33 08.1 18.7 R 699 – Lowell Observatory-LONEOS MPS 23006
2000 11 24.25040 03 09 54.66 +23 33 02.2   699 – Lowell Observatory-LONEOS MPS 23006
2000 11 24.27385 03 09 53.25 +23 32 55.7   699 – Lowell Observatory-LONEOS MPS 23006
2000 11 24.29738 03 09 51.89 +23 32 50.3   699 – Lowell Observatory-LONEOS MPS 23006
2000 11 29.22754 03 05 29.53 +23 12 10.3 19.6   704 – Lincoln Laboratory ETS, New Mexico MPS 24004
2000 11 29.24342 03 05 28.79 +23 12 06.1 19.4   704 – Lincoln Laboratory ETS, New Mexico MPS 24004
2000 11 29.26006 03 05 27.89 +23 12 01.4 19.7   704 – Lincoln Laboratory ETS, New Mexico MPS 24004
2000 11 29.27500 03 05 27.14 +23 11 58.0 19.8   704 – Lincoln Laboratory ETS, New Mexico MPS 24004
2000 11 29.29088 03 05 26.31 +23 11 53.6 19.7   704 – Lincoln Laboratory ETS, New Mexico MPS 24004
2002 04 09.34426 12 43 21.50 -07 34 48.3 21.8 V 691 – Steward Observatory, Kitt Peak-Spacewatch MPS 126717
2002 04 09.36610 12 43 20.23 -07 34 41.1 21.8 V 691 – Steward Observatory, Kitt Peak-Spacewatch MPS 126717
2002 04 09.38776 12 43 18.88 -07 34 33.9 22.0 V 691 – Steward Observatory, Kitt Peak-Spacewatch MPS 126717
2003 07 05.39522 21 27 20.97 -18 02 47.8 21.3 V 691 – Steward Observatory, Kitt Peak-Spacewatch MPS 126717
2003 07 05.42316 21 27 20.31 -18 02 50.0 21.6 V 691 – Steward Observatory, Kitt Peak-Spacewatch MPS 126717
2003 07 05.45120 21 27 19.64 -18 02 52.1 21.6 V 691 – Steward Observatory, Kitt Peak-Spacewatch MPS 126717
2005 02 02.32880 10 26 14.20 +10 53 33.4 20.9 V 691 – Steward Observatory, Kitt Peak-Spacewatch MPS 126460
2005 02 02.35688 10 26 12.63 +10 53 40.9 20.8 V 691 – Steward Observatory, Kitt Peak-Spacewatch MPS 126460
2005 02 02.38965 10 26 10.77 +10 53 49.2 21.0 V 691 – Steward Observatory, Kitt Peak-Spacewatch MPS 126460
2005 02 09.37407 10 19 19.28 +11 25 07.3 20.0 R G96 – Mt. Lemmon Survey MPS 126460
2005 02 09.38056 10 19 18.87 +11 25 09.3 19.8 R G96 – Mt. Lemmon Survey MPS 126460
2005 02 09.38708 10 19 18.44 +11 25 10.9 20.1 R G96 – Mt. Lemmon Survey MPS 126460
2005 02 09.39357 10 19 18.07 +11 25 13.0 19.6 R G96 – Mt. Lemmon Survey MPS 126460
2007 12 05.22194 05 54 50.18 +28 43 31.7 19.7 V 691 – Steward Observatory, Kitt Peak-Spacewatch MPS 229689
2007 12 05.23959 05 54 48.92 +28 43 31.3 20.4 V 691 – Steward Observatory, Kitt Peak-Spacewatch MPS 229689
2007 12 05.25724 05 54 47.74 +28 43 32.4 19.7 V 691 – Steward Observatory, Kitt Peak-Spacewatch MPS 229689
2007 12 13.26265 05 45 23.37 +28 40 34.1 19.1   704 – Lincoln Laboratory ETS, New Mexico MPS 230894
2007 12 13.27561 05 45 22.46 +28 40 33.5 19.6   704 – Lincoln Laboratory ETS, New Mexico MPS 230894
2007 12 13.28858 05 45 21.48 +28 40 32.9 19.6   704 – Lincoln Laboratory ETS, New Mexico MPS 230894
2007 12 13.30157 05 45 20.45 +28 40 31.9 19.7   704 – Lincoln Laboratory ETS, New Mexico MPS 230894
2007 12 13.31457 05 45 19.42 +28 40 31.5 19.6   704 – Lincoln Laboratory ETS, New Mexico MPS 230894
2007 12 15.26351 05 42 56.71 +28 38 37.1 19.9   704 – Lincoln Laboratory ETS, New Mexico MPS 231288
2007 12 15.27631 05 42 55.72 +28 38 35.2 20.0   704 – Lincoln Laboratory ETS, New Mexico MPS 231288
2007 12 15.28913 05 42 54.73 +28 38 34.5 19.9   704 – Lincoln Laboratory ETS, New Mexico MPS 231288
2007 12 15.30197 05 42 53.75 +28 38 34.3 19.7   704 – Lincoln Laboratory ETS, New Mexico MPS 231288
2007 12 15.31480 05 42 52.80 +28 38 33.5 19.4   704 – Lincoln Laboratory ETS, New Mexico MPS 231288
2007 12 16.24587 05 41 44.67 +28 37 27.0 19.5 V 691 – Steward Observatory, Kitt Peak-Spacewatch MPS 231288
2007 12 16.26352 05 41 43.31 +28 37 25.7 19.3 V 691 – Steward Observatory, Kitt Peak-Spacewatch MPS 231288
2007 12 16.28117 05 41 41.93 +28 37 24.7 19.3 V 691 – Steward Observatory, Kitt Peak-Spacewatch MPS 231288
2007 12 20.14476 05 37 00.77 +28 31 45.4 19.7   704 – Lincoln Laboratory ETS, New Mexico MPS 231709
2007 12 20.15769 05 36 59.91 +28 31 45.1 19.6   704 – Lincoln Laboratory ETS, New Mexico MPS 231709
2007 12 20.18350 05 36 57.93 +28 31 41.8 19.4   704 – Lincoln Laboratory ETS, New Mexico MPS 231709
2009 03 21.32209 14 04 39.49 -15 45 06.0   691 – Steward Observatory, Kitt Peak-Spacewatch MPS 281199
2009 03 21.33977 14 04 38.77 -15 45 04.2   691 – Steward Observatory, Kitt Peak-Spacewatch MPS 281199
2009 03 21.35744 14 04 38.08 -15 45 02.4   691 – Steward Observatory, Kitt Peak-Spacewatch MPS 281199
2009 04 20.28428 13 37 41.23 -13 52 31.7 20.7 V G96 – Mt. Lemmon Survey MPS 284221
2009 04 20.29112 13 37 40.83 -13 52 29.8 20.9 V G96 – Mt. Lemmon Survey MPS 284221
2009 04 20.29802 13 37 40.36 -13 52 27.3 20.5 V G96 – Mt. Lemmon Survey MPS 284221
2009 04 20.30488 13 37 39.90 -13 52 26.3 20.1 V G96 – Mt. Lemmon Survey MPS 284221
2010 05 25.563541 22 29 12.62 -11 19 31.4   C51 – WISE MPS 329054
2010 05 25.695845 22 29 23.46 -11 18 26.5   C51 – WISE MPS 329054
2010 05 25.828022 22 29 34.06 -11 17 21.1   C51 – WISE MPS 329054
2010 05 25.828149 22 29 34.17 -11 17 21.9   C51 – WISE MPS 329054
2010 05 25.894237 22 29 39.51 -11 16 48.8   C51 – WISE MPS 329054
2010 05 25.960325 22 29 44.88 -11 16 18.6   C51 – WISE MPS 329054
2010 05 25.960453 22 29 44.85 -11 16 16.3   C51 – WISE MPS 329054
2010 05 26.026542 22 29 50.251 -11 15 42.05   C51 – WISE MPS 926822
2010 05 26.092630 22 29 55.565 -11 15 12.74   C51 – WISE MPS 926822
2010 05 26.092757 22 29 55.798 -11 15 09.86   C51 – WISE MPS 926822
2010 05 26.158845 22 30 01.03 -11 14 40.6   C51 – WISE MPS 329054
2010 05 26.224933 22 30 06.26 -11 14 07.1   C51 – WISE MPS 329054
2010 05 26.225060 22 30 06.31 -11 14 06.9   C51 – WISE MPS 329054
2010 05 26.42345 22 30 22.41 -11 12 28.6   C51 – WISE MPS 329054
2010 05 26.555757 22 30 33.17 -11 11 22.6   C51 – WISE MPS 329054
2010 05 26.688060 22 30 43.81 -11 10 19.7   C51 – WISE MPS 329054
2010 05 26.820365 22 30 54.48 -11 09 15.3   C51 – WISE MPS 329054
2010 08 16.14867 23 13 08.55 -05 24 41.2 18.9 V J75 – OAM Observatory, La Sagra MPS 346189
2010 08 16.16154 23 13 08.04 -05 24 41.8 19.3 V J75 – OAM Observatory, La Sagra MPS 346189
2010 08 16.17443 23 13 07.51 -05 24 43.4 19.0 V J75 – OAM Observatory, La Sagra MPS 346189
2010 08 30.91459 23 01 31.58 -06 02 12.5 19.0 V J75 – OAM Observatory, La Sagra MPS 347024
2010 08 30.92898 23 01 30.77 -06 02 15.1 18.5 V J75 – OAM Observatory, La Sagra MPS 347024
2010 08 30.94338 23 01 29.93 -06 02 18.7 18.1 V J75 – OAM Observatory, La Sagra MPS 347024
2010 08 31.470795 23 01 00.344 -06 03 58.15 19.04 i F51 – Pan-STARRS 1, Haleakala MPS 366724
2010 08 31.481956 23 00 59.681 -06 04 00.26 18.94 i F51 – Pan-STARRS 1, Haleakala MPS 366724
2010 08 31.494549 23 00 58.935 -06 04 02.69 19.05 r F51 – Pan-STARRS 1, Haleakala MPS 366724
2010 08 31.506588 23 00 58.226 -06 04 05.03 19.03 r F51 – Pan-STARRS 1, Haleakala MPS 366724
2010 09 01.31126 23 00 13.46 -06 06 43.7 18.6   704 – Lincoln Laboratory ETS, New Mexico MPS 347024
2010 09 01.32280 23 00 12.79 -06 06 45.0 19.3   704 – Lincoln Laboratory ETS, New Mexico MPS 347024
2010 09 01.33431 23 00 12.05 -06 06 48.3 19.1   704 – Lincoln Laboratory ETS, New Mexico MPS 347024
2010 09 01.34581 23 00 11.37 -06 06 50.5 19.2   704 – Lincoln Laboratory ETS, New Mexico MPS 347024
2010 09 01.35775 23 00 10.66 -06 06 53.0 19.2   704 – Lincoln Laboratory ETS, New Mexico MPS 347024
2010 09 02.29477 22 59 18.02 -06 09 59.5 18.9 V G96 – Mt. Lemmon Survey MPS 347024
